Weather History for Bloomington, IN

Change the Weather History Date:

Friday, February 22, 2013

  Actual Average Record
Temperature  
Mean Temperature 34 °F 35 °F  
Max Temperature 37 °F 45 °F 59 °F (2014)
Min Temperature 31 °F 25 °F 17 °F (1999)
Degree Days  
Heating Degree Days 31 30  
Month to date heating degree days 733 720  
Since 1 July heating degree days 3777 3895  
Cooling Degree Days 0 0  
Month to date cooling degree days 0 0  
Year to date cooling degree days 0 0  
Moisture  
Dew Point 30 °F    
Average Humidity 83    
Maximum Humidity 96    
Minimum Humidity 70    
Precipitation  
Precipitation 0.03 in 0.08 in 1.09 in (2003)
Month to date precipitation 1.32 2.27  
Year to date precipitation 6.78 5.58  
Sea Level Pressure  
Sea Level Pressure 29.89 in    
Wind  
Wind Speed 10 mph (SSW)    
Max Wind Speed 23 mph    
Max Gust Speed 30 mph    
Visibility 5 miles    
Events Fog , Rain    
T = Trace of Precipitation, MM = Missing Value Source: NWS Daily Summary

Daily Weather History Graph

Daily Weather History Graph

Search for Another Location

Airport:

Trip Planner

Search our weather history database for the weather conditions in past years. The results will help you decide how hot, cold, wet, or windy it might be!

Date:

Astronomy

Feb. 22, 2013 Rise Set
Actual Time 7:28 AM EST 6:31 PM EST
Civil Twilight 7:01 AM EST 6:58 PM EST
Nautical Twilight 6:30 AM EST 7:29 PM EST
Astronomical Twilight 5:59 AM EST 8:00 PM EST
Moon 3:43 PM EST (2/22) 5:12 AM EST (2/22)
Length of Visible Light 11h 57m
Length of Day
11h 03m
Waxing Gibbous, 90% of the Moon is Illuminated
Feb 22
Waxing Gibbous
Feb 25
Full
Mar 4
Last Quarter
Mar 11
New
Mar 19
First Quarter

Hourly Weather History & Observations

Time (EST) Temp. Windchill Dew Point Humidity Pressure Visibility Wind Dir Wind Speed Gust Speed Precip Events Conditions
12:53 AM 30.9 °F 19.4 °F 28.0 °F 89% 29.91 in 5.0 mi SE 17.3 mph - 0.00 in Rain Light Freezing Rain
1:53 AM 30.9 °F 20.2 °F 28.0 °F 89% 29.88 in 8.0 mi SE 15.0 mph - 0.01 in Rain Light Freezing Rain
2:10 AM 30.2 °F 19.8 °F 28.4 °F 93% 29.86 in 1.8 mi SE 13.8 mph - 0.00 in Rain Light Freezing Rain
2:45 AM 30.2 °F 20.8 °F 28.4 °F 93% 29.83 in 2.0 mi ESE 11.5 mph - 0.02 in Rain Light Freezing Rain
3:01 AM 32.0 °F 23.0 °F 28.4 °F 87% 29.83 in 3.0 mi ESE 11.5 mph - 0.00 in Rain Light Freezing Rain
3:53 AM 32.0 °F 26.4 °F 30.0 °F 92% 29.85 in 2.5 mi Variable 5.8 mph - 0.00 in Rain Light Freezing Rain
4:38 AM 33.8 °F 27.0 °F 30.2 °F 87% 29.82 in 1.8 mi SE 8.1 mph - 0.00 in Rain Light Freezing Rain
4:42 AM 33.8 °F 27.7 °F 30.2 °F 87% 29.81 in 2.0 mi SE 6.9 mph - 0.00 in Rain Light Freezing Rain
4:53 AM 33.1 °F 26.1 °F 30.9 °F 92% 29.83 in 2.5 mi SE 8.1 mph - 0.00 in Rain Light Freezing Rain
5:53 AM 33.1 °F 26.1 °F 30.9 °F 92% 29.84 in 1.5 mi SSE 8.1 mph - 0.00 in Rain Light Freezing Rain
6:14 AM 33.8 °F 27.7 °F 30.2 °F 87% 29.82 in 2.0 mi SSE 6.9 mph - 0.00 in Rain Light Freezing Rain
6:29 AM 33.8 °F 27.0 °F 30.2 °F 87% 29.83 in 1.8 mi SSE 8.1 mph - 0.00 in Rain Light Freezing Rain
6:39 AM 33.8 °F 28.6 °F 30.2 °F 87% 29.83 in 2.0 mi South 5.8 mph - 0.00 in Rain Light Freezing Rain
6:46 AM 33.8 °F 29.6 °F 30.2 °F 87% 29.84 in 1.8 mi SSE 4.6 mph - 0.00 in Rain Light Freezing Rain
7:07 AM 33.8 °F 28.6 °F 30.2 °F 87% 29.84 in 2.0 mi SSE 5.8 mph - 0.00 in Rain Light Freezing Rain
7:16 AM 33.8 °F 27.0 °F 30.2 °F 87% 29.84 in 1.8 mi SSE 8.1 mph - 0.00 in Rain Light Freezing Rain
7:50 AM 33.8 °F 27.7 °F 30.2 °F 87% 29.85 in 0.5 mi SSE 6.9 mph - 0.00 in Fog , Rain Light Freezing Rain
7:53 AM 33.1 °F 28.7 °F 30.9 °F 92% 29.87 in 0.5 mi SSE 4.6 mph - 0.00 in Fog , Rain Light Freezing Rain
8:07 AM 33.8 °F 29.6 °F 30.2 °F 87% 29.85 in 0.2 mi SSE 4.6 mph - 0.00 in Fog , Rain Light Freezing Rain
8:33 AM 33.8 °F 27.7 °F 32.0 °F 93% 29.86 in 0.5 mi South 6.9 mph - 0.00 in Fog , Rain Light Freezing Rain
8:40 AM 33.8 °F 27.7 °F 32.0 °F 93% 29.86 in 0.2 mi South 6.9 mph - 0.00 in Fog , Rain Light Freezing Rain
8:53 AM 34.0 °F 28.0 °F 32.0 °F 92% 29.88 in 0.2 mi South 6.9 mph - 0.00 in Fog , Rain Light Freezing Rain
9:34 AM 33.8 °F 26.4 °F 33.8 °F 100% 29.88 in 0.2 mi SW 9.2 mph - 0.00 in Fog Fog
9:49 AM 35.6 °F 27.5 °F 33.8 °F 93% 29.88 in 1.0 mi SW 11.5 mph - 0.00 in   Overcast
9:53 AM 35.1 °F 27.9 °F 33.1 °F 92% 29.91 in 1.8 mi WSW 9.2 mph 18.4 mph 0.00 in   Overcast
10:00 AM 35.6 °F 27.1 °F 33.8 °F 93% 29.88 in 2.5 mi WSW 12.7 mph 21.9 mph N/A   Overcast
10:08 AM 35.6 °F 27.5 °F 32.0 °F 87% 29.88 in 4.0 mi WSW 11.5 mph 26.5 mph N/A   Overcast
10:53 AM 34.0 °F 24.6 °F 32.0 °F 92% 29.92 in 4.0 mi SW 13.8 mph 20.7 mph N/A   Overcast
11:53 AM 34.0 °F 23.8 °F 32.0 °F 92% 29.95 in 6.0 mi SW 16.1 mph 21.9 mph N/A   Overcast
12:12 PM 33.8 °F 24.3 °F 32.0 °F 93% 29.93 in 8.0 mi SW 13.8 mph 20.7 mph N/A   Overcast
12:53 PM 35.1 °F 27.4 °F 30.9 °F 85% 29.96 in 10.0 mi SW 10.4 mph 21.9 mph N/A   Overcast
1:23 PM 35.6 °F 27.5 °F 30.2 °F 81% 29.93 in 10.0 mi WSW 11.5 mph - N/A   Overcast
1:48 PM 35.6 °F 26.6 °F 30.2 °F 81% 29.93 in 10.0 mi SW 13.8 mph - N/A   Overcast
1:53 PM 36.0 °F 27.1 °F 30.0 °F 79% 29.95 in 10.0 mi WSW 13.8 mph - N/A   Overcast
2:53 PM 36.0 °F 26.3 °F 28.9 °F 76% 29.95 in 10.0 mi WSW 16.1 mph 27.6 mph N/A   Overcast
3:53 PM 37.0 °F 30.4 °F 30.0 °F 76% 29.95 in 10.0 mi WSW 9.2 mph - N/A   Overcast
4:53 PM 37.0 °F 29.3 °F 28.9 °F 73% 29.95 in 10.0 mi WSW 11.5 mph - N/A   Overcast
5:53 PM 37.0 °F 29.8 °F 28.0 °F 70% 29.96 in 10.0 mi WSW 10.4 mph - N/A   Overcast
6:53 PM 36.0 °F 30.3 °F 28.0 °F 73% 29.96 in 10.0 mi WSW 6.9 mph - N/A   Overcast
7:53 PM 36.0 °F 31.1 °F 28.9 °F 76% 29.97 in 10.0 mi WSW 5.8 mph - N/A   Overcast
8:53 PM 35.1 °F 29.3 °F 28.0 °F 76% 29.98 in 10.0 mi West 6.9 mph - N/A   Overcast
9:53 PM 34.0 °F 28.0 °F 27.0 °F 75% 30.00 in 10.0 mi West 6.9 mph - N/A   Overcast
10:53 PM 33.1 °F 27.7 °F 26.1 °F 75% 30.01 in 10.0 mi WNW 5.8 mph - N/A   Overcast
11:53 PM 32.0 °F 23.6 °F 23.0 °F 69% 30.02 in 10.0 mi WNW 10.4 mph 19.6 mph N/A   Overcast